Showing default

COSMOS 2586, 63289

Orbit data source: Space-Track

COSMOS 2586, 63289 is a payload satellite owned by VVKO VKS (CIS) in LEO that was launched on Sun, 16 Mar 2025 UTC via an ANGARA-1.2 launch vehicle from the Plesetsk Missile And Space Complex (PKMTR). Payload-class satellites include a variety of spacecraft equipped with specific instruments for various scientific and technological missions. These include communications satellites like Starlink; space stations such as the ISS; scientific satellites like the Hubble; Earth observation satellites from companies like Planet Labs, Umbra, and HawkEye 360; GPS; miniature CubeSats for education and research; and military/defense satellites.

Loading next visibility...
Identifier
63289, 2025-054B
Orbit
LEO
Country
Flag of CISCIS
Related business
Manufacturer
Resehetnev ISS
Mission
Operational Defense Communications
Bus & Motor
STRELA-3M, Unknown motor
Mass
280 kg wet, 280 kg dry
Launch date (UTC)
2025-03-16 (6 months ago)
Launch vehicle
ANGARA-1.2
Launch site
Plesetsk Missile And Space Complex (PKMTR)
Object type
Payload
Rocket body
Debris
Shape & HBR
Cyl + 1 Ant, 3.5 m
Radar Cross Section
1.583 m², Large (>1 m²)

Expand to show TLE details & history
Last TLE update: 1 month ago

TLE from 1 month ago
0 COSMOS 2586
1 63289U 25054B   25231.81534703  .00000047  00000-0  26890-3 0  9997
2 63289  82.4881 266.1326 0019647 324.2054  35.7708 12.42899220 19418
Epoch: 2025-08-19T19:34Z
TLE epoch observation values (Epoch: 2025-08-19T19:34:05.983Z)
Latitude
0.00001°
Longitude
4.20556°
Altitude
1,484.495 km
Speed
7.127 km/s
True Right ascension
17h 44m 31s
True Declination
0° 00' 00"
Sunlit
Object was in daylight at epoch
Visualization orbit readout
Latitude
Unknown
Longitude
Unknown
Altitude
Unknown
Speed
Unknown
Apparent Right ascension
Unknown
Apparent Declination
Unknown
Sunlit
N/A
Visualization observer readout
Local Sidereal Time
08:16:22
Azimuth
Unknown
Elevation
Unknown
Doppler factor
Unknown
Orbital elements
Apogee altitude
1,507.15 km
Perigee altitude
1,476.227 km
Semi-major axis
7,869.826 km
Eccentricity
0.00196
Inclination
82.4881°
RAAN
266.1326°
Arg. of periapsis
324.2054°
True anomaly
35.90267°
Mean anomaly
35.7708°
Eccentric anomaly
35.83671°
Mean motion
3.10882 °/min
Orbital period
115.8 mins
BSTAR
0.0002689
Loading maneuver chart data...
Computing Atmospheric mass density...
Loading historical data...
Loading historical data...
Loading historical data...
Loading historical data...
Loading historical data...
Loading historical data...
Loading historical data...
Other satellites on launch #54 in the year 2025 (2025-03-16 UTC)

Documentation

Showing up to 5 results
|